Other Surface Observations
Issued by NWS

Home | Current Version | Previous Version | Text Only | Print | Product List | Glossary On
Versions: 1 2 3 4 5 6 7 8 9 10 11 12 13 14 15 16 17 18 19 20 21 22 23 24 25 26 27 28 29 30 31 32 33 34 35 36 37 38 39 40 41 42 43 44 45 46 47 48 49 50
000
SXUS52 KTAE 062118
OSOTAE
OSOTAE
North Florida/South Alabama/Southwest Georgia Weather Roundup
National Weather Service Tallahassee Florida
400 PM EST FRI MAR 06 2015

Note: "fair" indicates few or no clouds below 12,000 feet with no
significant weather and/or obstructions to visibility.

!FLZ017-115-028-034-025-062200
...North Florida...

CITY           SKY/WX    TMP DP  RH WIND       PRES   REMARKS
TALLAHASSEE    CLOUDY    49  40  71 N12       30.35R WCI  44
APALACHICOLA   PTSUNNY   60  41  49 N14       30.31S
PERRY          NOT AVBL
CROSS CITY       N/A     57  49  74 NE13G20   30.28R
JACKSONVILLE   CLOUDY    46  46 100 N12       30.32S WCI  41
$$

!FLZ112-006-005-002-011-062200
...Florida Panhandle...

CITY           SKY/WX    TMP DP  RH WIND       PRES   REMARKS
MARIANNA       CLOUDY    47  39  74 NE12      30.37S WCI  42
BONIFAY        FAIR      50  38  63 NE8       30.38S
PANAMA CITY NW FAIR      53  38  56 N13G22    30.33F
TYNDALL AFB    PTSUNNY   53  40  59 N10G17    30.33F
TYND DRONE APT FAIR      53  40  63 N17       30.33R
DE FUNIAK SPR  FAIR      50  34  53 NE13      30.37S
EGLIN AFB      PTSUNNY   54  30  39 N16       30.34S
DESTIN         PTSUNNY   54  33  45 N12       30.35S
HURLBURT       PTSUNNY   54  21  28 NE16      30.34F
CRESTVIEW      MOSUNNY   54  31  41 NE10G16   30.38F
PENSACOLA      MOSUNNY   52  22  30 N10       30.36F
$$

!ALZ063-066-062200
...South Alabama...

CITY           SKY/WX    TMP DP  RH WIND       PRES   REMARKS
DOTHAN         CLOUDY    51  38  60 NE10      30.41S
OZARK CAIRNS   SUNNY     52  35  51 NE8G20    30.37S
FT RUCKER HELI SUNNY     53  35  50 NE9       30.36F
RUCKER HELI 3  FAIR      52  35  52 NE7G17    30.38S
RUCKER HELI 2  FAIR      51  35  54 N13G20    30.37S
FLORALA APT    MOSUNNY   52  32  46 N8G20     30.38F
ANDALUSIA      SUNNY     55  31  39 NE10G16   30.38F
TROY           SUNNY     52  32  46 N12       30.39S
EUFALA         CLOUDY    51  35  54 N3        30.38S
MOBILE         MOSUNNY   53  13  20 N15G25    30.39F
$$

!GAZ120>161-062200
...Southwest and South Central Georgia...

CITY           SKY/WX    TMP DP  RH WIND       PRES   REMARKS
THOMASVILLE    CLOUDY    46  46 100 N8        30.37R FOG     WCI  42
BAINBRIDGE     CLOUDY    48  41  76 N9        30.39R WCI  44
MOODY AFB      CLOUDY    46  43  87 N13       30.34S WCI  41
VALDOSTA       CLOUDY    48  46  93 N10       30.35R FOG     WCI  43
MOULTRIE       CLOUDY    46  45  93 N7        30.37R WCI  43
BLAKELY        CLOUDY    48  41  76 N8        30.40F WCI  45
ALBANY         CLOUDY    48  39  71 N12       30.41R WCI  43
TIFTON         CLOUDY    45  39  78 N6        30.37S WCI  42
FITZGERALD     CLOUDY    49  37  64 N9        30.40S
CORDELE        CLOUDY    49  38  65 N9        30.39S WCI  45
AMERICUS       CLOUDY    48  37  66 NE7       30.40F
HOMERVILLE     CLOUDY    48  45  87 NE6       30.36R
$$

!GMZ750-755-770-775-062200
...Coastal and Buoy Obs...

STATION/POSITION TIME  TEMP    WIND        PRES    VSBY  WAVE
                       AIR SEA DIR/SP/G                  HT/PER
                 (UTC) (F)     (DEG/KT/KT) (MB)    (MI)  (FT/S)
KEATON BEACH     2100   53      20/  7/ 10 1026.2R
CEDAR KEY        2100   57      20/  8/ 11 1024.6R
C TOWER          2100   54      10/  6/  7 1025.8F
APALACHICOLA BUO 2100   57 67   10/ 16/ 19 1024.7R         4/ 6
PANAMA CITY BUOY 2029   52 67   10/ 17/ 21 1026.5F         5/ 6
MOBILE BUOY      2000   49 66   20/ 19/ 23 1028.5          5/ 6
ORANGE BCH AL BU 2100   50 62   10/ 14/ 17 1027.4F         2/ 3
$$



USA.gov is the U.S. government's official web portal to all federal, state and local government web resources and services.